Voltar ao catálogo

COSMOS 1375 DEB

AtivoLEO
NORAD 16207·DEBRIS·🇷🇺 Russia

Lançado Jun 6, 1982 de Plesetsk Cosmodrome

Loading…

Próximas Passagens (próximas 24 horas)

TLE

AtualizadoSource: Space-Track

Época: Sep 14, 2026, 17:44 UTC

1 16207U 82055J   26257.73919391 -.00000085  00000-0 -10563-4 0  9994
2 16207  65.8344 179.1907 0076546 155.6615 221.4535 13.57720957 27129

Acompanhe COSMOS 1375 DEB em tempo real com AllMySat

Download on the App Store